• In Kazakhstan
  • List of Countries
  • For 7 days
  • Water Temperature
  • Satellite Maps
  • Weather Map
  • News
  • Weather Widgets
  • user-avatar
    Login

    Hourly Weather Stevenage

    Today, 19 November, Monday

    Time Temperature Precipitation Wind Pressure Humidity
    00:00 +5°C° 0 mm 5 mps 759 mmHg 74%
    01:00 +4°C° 0 mm 6 mps 758 mmHg 75%
    02:00 +4°C° 0 mm 6 mps 758 mmHg 77%
    03:00 +4°C° 0 mm 6 mps 758 mmHg 78%
    04:00 +4°C° 0 mm 6 mps 758 mmHg 76%
    05:00 +4°C° 0 mm 6 mps 758 mmHg 74%
    06:00 +5°C° 0 mm 6 mps 757 mmHg 72%
    07:00 +5°C° 0 mm 6 mps 757 mmHg 71%
    08:00 +5°C° 0 mm 6 mps 757 mmHg 71%
    09:00 +5°C° 0 mm 6 mps 757 mmHg 70%
    10:00 +5°C° 0 mm 6 mps 757 mmHg 68%
    11:00 +7°C° 0 mm 6 mps 756 mmHg 67%
    12:00 +7°C° 0 mm 6 mps 756 mmHg 65%
    13:00 +7°C° 0.1 mm 6 mps 755 mmHg 65%
    14:00 +7°C° 0.1 mm 6 mps 755 mmHg 65%
    15:00 +7°C° 0.1 mm 6 mps 754 mmHg 65%
    16:00 +5°C° 0.1 mm 6 mps 754 mmHg 66%
    17:00 +5°C° 0.1 mm 6 mps 754 mmHg 67%
    18:00 +4°C° 0.1 mm 6 mps 753 mmHg 69%
    19:00 +4°C° 0.1 mm 6 mps 753 mmHg 68%
    20:00 +4°C° 0.1 mm 6 mps 753 mmHg 68%
    21:00 +4°C° 0.1 mm 6 mps 753 mmHg 68%
    22:00 +3°C° 0.1 mm 6 mps 752 mmHg 68%
    23:00 +3°C° 0.1 mm 6 mps 752 mmHg 69%

    Tomorrow, 20 November, Tuesday

    Time Temperature Precipitation Wind Pressure Humidity
    00:00 +3°C° 0.1 mm 6 mps 752 mmHg 69%
    01:00 +3°C° 0.1 mm 6 mps 751 mmHg 69%
    02:00 +3°C° 0.1 mm 6 mps 751 mmHg 69%
    03:00 +2°C° 0.1 mm 6 mps 750 mmHg 69%
    04:00 +2°C° 0.1 mm 6 mps 750 mmHg 70%
    05:00 +2°C° 0.1 mm 6 mps 749 mmHg 71%
    06:00 +2°C° 0.1 mm 6 mps 749 mmHg 72%
    07:00 +2°C° 0.2 mm 6 mps 749 mmHg 73%
    08:00 +2°C° 0.2 mm 7 mps 749 mmHg 73%
    09:00 +3°C° 0.2 mm 7 mps 748 mmHg 74%
    10:00 +3°C° 0.3 mm 7 mps 748 mmHg 73%
    11:00 +3°C° 0.3 mm 7 mps 747 mmHg 72%
    12:00 +3°C° 0.3 mm 7 mps 747 mmHg 72%
    13:00 +3°C° 0.2 mm 7 mps 747 mmHg 72%
    14:00 +3°C° 0.2 mm 6 mps 746 mmHg 73%
    15:00 +3°C° 0.2 mm 6 mps 746 mmHg 74%
    16:00 +2°C° 0.1 mm 6 mps 746 mmHg 75%
    17:00 +2°C° 0.1 mm 5 mps 746 mmHg 77%
    18:00 +3°C° 0.1 mm 4 mps 746 mmHg 78%
    19:00 +3°C° 0.1 mm 4 mps 746 mmHg 78%
    20:00 +3°C° 0.1 mm 4 mps 746 mmHg 79%
    21:00 +3°C° 0.1 mm 3 mps 745 mmHg 79%
    22:00 +3°C° 0.1 mm 3 mps 745 mmHg 80%
    23:00 +3°C° 0.1 mm 3 mps 745 mmHg 81%

    Day after tomorrow, 21 November, Wednesday

    Time Temperature Precipitation Wind Pressure Humidity
    00:00 +4°C° 0.1 mm 2 mps 745 mmHg 82%
    01:00 +4°C° 0.2 mm 2 mps 744 mmHg 84%
    02:00 +4°C° 0.2 mm 2 mps 744 mmHg 85%
    03:00 +4°C° 0.2 mm 2 mps 744 mmHg 86%
    04:00 +3°C° 0.2 mm 2 mps 744 mmHg 87%
    05:00 +3°C° 0.2 mm 2 mps 745 mmHg 87%
    06:00 +3°C° 0.2 mm 2 mps 745 mmHg 87%
    07:00 +2°C° 0 mm 3 mps 746 mmHg 85%
    08:00 +3°C° 0 mm 3 mps 746 mmHg 84%
    09:00 +3°C° 0 mm 3 mps 747 mmHg 82%
    10:00 +4°C° 0 mm 4 mps 748 mmHg 77%
    11:00 +5°C° 0 mm 4 mps 749 mmHg 72%
    12:00 +5°C° 0 mm 4 mps 749 mmHg 67%
    13:00 +5°C° 0 mm 4 mps 750 mmHg 68%
    14:00 +5°C° 0 mm 3 mps 750 mmHg 69%
    15:00 +5°C° 0 mm 3 mps 751 mmHg 70%
    16:00 +5°C° 0 mm 2 mps 751 mmHg 73%
    17:00 +4°C° 0 mm 2 mps 752 mmHg 76%
    18:00 +3°C° 0 mm 2 mps 752 mmHg 80%
    19:00 +4°C° 0 mm 1 mps 753 mmHg 80%
    20:00 +3°C° 0 mm 1 mps 753 mmHg 81%
    21:00 +3°C° 0 mm 1 mps 753 mmHg 81%
    22:00 +3°C° 0 mm 1 mps 753 mmHg 81%
    23:00 +3°C° 0 mm 1 mps 753 mmHg 81%

    22 November, Thursday

    Time Temperature Precipitation Wind Pressure Humidity
    00:00 +3°C° 0 mm 1 mps 753 mmHg 81%
    01:00 +3°C° 0 mm 1 mps 753 mmHg 82%
    02:00 +3°C° 0 mm 1 mps 753 mmHg 83%
    03:00 +3°C° 0 mm 1 mps 753 mmHg 83%
    04:00 +3°C° 0 mm 1 mps 753 mmHg 84%
    05:00 +3°C° 0 mm 1 mps 753 mmHg 85%
    06:00 +3°C° 0 mm 1 mps 753 mmHg 86%
    07:00 +4°C° 0 mm 1 mps 753 mmHg 86%
    08:00 +4°C° 0 mm 1 mps 753 mmHg 86%
    09:00 +4°C° 0 mm 1 mps 753 mmHg 86%
    10:00 +5°C° 0 mm 1 mps 753 mmHg 83%
    11:00 +6°C° 0 mm 1 mps 753 mmHg 79%
    12:00 +7°C° 0 mm 1 mps 753 mmHg 76%
    13:00 +6°C° 0 mm 1 mps 753 mmHg 77%
    14:00 +6°C° 0 mm 1 mps 753 mmHg 77%
    15:00 +6°C° 0 mm 1 mps 753 mmHg 77%
    16:00 +5°C° 0 mm 1 mps 753 mmHg 79%
    17:00 +5°C° 0 mm 1 mps 753 mmHg 81%
    18:00 +4°C° 0 mm 1 mps 753 mmHg 82%
    19:00 +3°C° 0 mm 2 mps 753 mmHg 82%
    20:00 +2°C° 0 mm 2 mps 754 mmHg 82%
    21:00 +2°C° 0 mm 2 mps 754 mmHg 82%
    22:00 +2°C° 0 mm 2 mps 754 mmHg 83%
    23:00 +2°C° 0 mm 2 mps 754 mmHg 84%

    23 November, Friday

    Time Temperature Precipitation Wind Pressure Humidity
    00:00 +2°C° 0 mm 2 mps 754 mmHg 86%
    01:00 +3°C° 0 mm 2 mps 754 mmHg 87%
    02:00 +4°C° 0 mm 2 mps 754 mmHg 89%
    03:00 +4°C° 0 mm 2 mps 754 mmHg 90%
    04:00 +4°C° 0 mm 3 mps 754 mmHg 92%
    05:00 +4°C° 0 mm 3 mps 753 mmHg 93%
    06:00 +4°C° 0 mm 3 mps 753 mmHg 94%
    07:00 +5°C° 0 mm 3 mps 753 mmHg 94%
    08:00 +5°C° 0 mm 3 mps 754 mmHg 93%
    09:00 +5°C° 0 mm 3 mps 754 mmHg 92%
    10:00 +7°C° 0 mm 3 mps 754 mmHg 89%
    11:00 +8°C° 0 mm 3 mps 753 mmHg 86%
    12:00 +9°C° 0 mm 3 mps 753 mmHg 83%
    13:00 +8°C° 0 mm 3 mps 753 mmHg 84%
    14:00 +8°C° 0 mm 3 mps 753 mmHg 85%
    15:00 +8°C° 0 mm 3 mps 753 mmHg 86%
    16:00 +8°C° 0 mm 2 mps 753 mmHg 87%
    17:00 +8°C° 0 mm 2 mps 752 mmHg 88%
    18:00 +8°C° 0 mm 2 mps 752 mmHg 90%
    19:00 +8°C° 0 mm 2 mps 752 mmHg 90%
    20:00 +8°C° 0 mm 2 mps 752 mmHg 90%
    21:00 +8°C° 0 mm 2 mps 752 mmHg 91%
    22:00 +8°C° 0 mm 3 mps 752 mmHg 91%
    23:00 +8°C° 0 mm 3 mps 752 mmHg 92%

    24 November, Saturday

    Time Temperature Precipitation Wind Pressure Humidity
    00:00 +8°C° 0 mm 3 mps 752 mmHg 92%
    01:00 +7°C° 0.1 mm 3 mps 752 mmHg 93%
    02:00 +7°C° 0.1 mm 3 mps 751 mmHg 93%
    03:00 +7°C° 0.1 mm 3 mps 751 mmHg 94%
    04:00 +7°C° 0.2 mm 3 mps 751 mmHg 94%
    05:00 +7°C° 0.2 mm 3 mps 751 mmHg 95%
    06:00 +5°C° 0.2 mm 3 mps 751 mmHg 95%
    07:00 +7°C° 0.2 mm 3 mps 751 mmHg 94%
    08:00 +7°C° 0.2 mm 3 mps 751 mmHg 94%
    09:00 +7°C° 0.2 mm 3 mps 751 mmHg 93%
    10:00 +8°C° 0.1 mm 3 mps 751 mmHg 91%
    11:00 +8°C° 0.1 mm 3 mps 751 mmHg 88%
    12:00 +9°C° 0.1 mm 3 mps 751 mmHg 86%
    13:00 +9°C° 0.1 mm 3 mps 751 mmHg 87%
    14:00 +9°C° 0.1 mm 3 mps 751 mmHg 87%
    15:00 +9°C° 0.1 mm 2 mps 751 mmHg 88%
    16:00 +8°C° 0.1 mm 2 mps 751 mmHg 90%
    17:00 +8°C° 0.1 mm 2 mps 751 mmHg 91%
    18:00 +8°C° 0.1 mm 2 mps 751 mmHg 93%
    19:00 +8°C° 0.2 mm 2 mps 751 mmHg 93%
    20:00 +7°C° 0.2 mm 2 mps 751 mmHg 93%
    21:00 +7°C° 0.2 mm 2 mps 751 mmHg 94%
    22:00 +7°C° 0.1 mm 2 mps 751 mmHg 94%
    23:00 +7°C° 0.1 mm 2 mps 751 mmHg 94%
    Show more